| time (UTC) | temp F | wind direction | speed knots | gust knots | rain 1hr in | rain 24hr in | rain mn in | humidity % | barometer mb |
| 20260503200042 | 62 | 197 | 4.3 | 13.0 | 0.00 | 0.00 | 0.00 | 40 | 1016.0 |
| 20260503194538 | 60 | 217 | 2.6 | 11.3 | 0.00 | 0.00 | 0.00 | 44 | 1016.3 |
| 20260503193052 | 60 | 126 | 6.1 | 13.9 | 0.00 | 0.00 | 0.00 | 41 | 1016.6 |
| 20260503191534 | 60 | 146 | 5.2 | 18.2 | 0.00 | 0.00 | 0.00 | 41 | 1016.8 |
| 20260503190059 | 61 | 251 | 6.1 | 13.9 | 0.00 | 0.00 | 0.00 | 42 | 1017.2 |
| 20260503184544 | 60 | 205 | 5.2 | 13.0 | 0.00 | 0.00 | 0.00 | 40 | 1017.2 |
| 20260503183055 | 59 | 207 | 4.3 | 11.3 | 0.00 | 0.00 | 0.00 | 41 | 1017.6 |
| 20260503181540 | 59 | 217 | 1.7 | 9.6 | 0.00 | 0.00 | 0.00 | 42 | 1017.7 |
| 20260503180051 | 60 | 279 | 3.5 | 10.4 | 0.00 | 0.00 | 0.00 | 43 | 1017.8 |
| 20260503174534 | 59 | 183 | 3.5 | 13.9 | 0.00 | 0.00 | 0.00 | 45 | 1017.9 |
| 20260503173041 | 59 | 200 | 2.6 | 12.2 | 0.00 | 0.00 | 0.00 | 47 | 1018.3 |
| 20260503171549 | 58 | 138 | 2.6 | 13.9 | 0.00 | 0.00 | 0.00 | 45 | 1018.5 |
| 20260503081544 | 34 | 0 | 0.0 | 0.0 | 0.00 | 0.00 | 0.00 | 88 | 1018.8 |
| 20260503071542 | 35 | 0 | 0.0 | 0.0 | 0.00 | 0.00 | 0.00 | 87 | 1018.7 |
| 20260503054542 | 34 | 0 | 0.0 | 0.0 | 0.00 | 0.00 | 0.00 | 85 | 1019.1 |
| 20260503053044 | 35 | 0 | 0.0 | 0.0 | 0.00 | 0.00 | 0.00 | 85 | 1019.2 |
| 20260503051539 | 35 | 0 | 0.0 | 0.0 | 0.00 | 0.00 | 0.00 | 84 | 1019.0 |
| 20260503050036 | 36 | 0 | 0.0 | 0.0 | 0.00 | 0.00 | 0.00 | 84 | 1019.0 |
| 20260503044536 | 36 | 0 | 0.0 | 0.0 | 0.00 | 0.00 | 0.00 | 84 | 1019.1 |
| 20260503043041 | 36 | 0 | 0.0 | 0.0 | 0.00 | 0.00 | 0.00 | 83 | 1019.1 |
| 20260503041541 | 37 | 0 | 0.0 | 0.0 | 0.00 | 0.00 | 0.00 | 82 | 1019.1 |
| 20260503040041 | 38 | 0 | 0.0 | 0.9 | 0.00 | 0.00 | 0.00 | 81 | 1019.2 |
| 20260503034537 | 38 | 0 | 0.0 | 0.9 | 0.00 | 0.00 | 0.00 | 79 | 1019.2 |
| 20260503033043 | 38 | 0 | 0.0 | 0.9 | 0.00 | 0.00 | 0.00 | 78 | 1019.3 |
| 20260503031535 | 39 | 0 | 0.0 | 0.0 | 0.00 | 0.00 | 0.00 | 75 | 1019.3 |
| 20260503030042 | 40 | 0 | 0.0 | 0.0 | 0.00 | 0.00 | 0.00 | 73 | 1019.2 |
| 20260503024541 | 40 | 0 | 0.0 | 0.0 | 0.00 | 0.00 | 0.00 | 71 | 1019.2 |
| 20260503023041 | 41 | 0 | 0.0 | 0.0 | 0.00 | 0.00 | 0.00 | 69 | 1019.2 |
| 20260503021538 | 42 | 0 | 0.0 | 0.9 | 0.00 | 0.00 | 0.00 | 67 | 1019.0 |
| 20260503020035 | 43 | 0 | 0.0 | 0.9 | 0.00 | 0.00 | 0.00 | 65 | 1018.8 |
| 20260503014607 | 44 | 0 | 0.0 | 0.9 | 0.00 | 0.00 | 0.00 | 62 | 1018.8 |
| 20260503013042 | 45 | 0 | 0.0 | 1.7 | 0.00 | 0.00 | 0.00 | 60 | 1018.6 |
| 20260503011547 | 46 | 350 | 0.0 | 2.6 | 0.00 | 0.00 | 0.00 | 58 | 1018.5 |
| 20260503010050 | 46 | 355 | 0.9 | 3.5 | 0.00 | 0.00 | 0.00 | 56 | 1018.3 |
| 20260503004605 | 47 | 0 | 0.9 | 5.2 | 0.00 | 0.00 | 0.00 | 55 | 1018.3 |
| 20260503003035 | 48 | 27 | 0.9 | 6.1 | 0.00 | 0.00 | 0.00 | 54 | 1018.2 |
| 20260503001535 | 49 | 346 | 2.6 | 7.8 | 0.00 | 0.00 | 0.00 | 51 | 1017.9 |
| 20260503000036 | 49 | 339 | 1.7 | 7.0 | 0.00 | 0.00 | 0.00 | 51 | 1017.8 |
| 20260502234544 | 50 | 352 | 2.6 | 7.8 | 0.00 | 0.00 | 0.00 | 50 | 1017.7 |
| 20260502233045 | 50 | 315 | 1.7 | 9.6 | 0.00 | 0.00 | 0.00 | 50 | 1017.6 |
| 20260502231540 | 51 | 317 | 1.7 | 8.7 | 0.00 | 0.00 | 0.00 | 47 | 1017.5 |
| 20260502230036 | 51 | 313 | 3.5 | 7.8 | 0.00 | 0.00 | 0.00 | 46 | 1017.4 |
| 20260502224544 | 52 | 319 | 0.9 | 7.8 | 0.00 | 0.00 | 0.00 | 48 | 1017.4 |
| 20260502223043 | 53 | 303 | 1.7 | 10.4 | 0.00 | 0.00 | 0.00 | 46 | 1017.4 |
| 20260502221542 | 52 | 319 | 3.5 | 11.3 | 0.00 | 0.00 | 0.00 | 46 | 1017.3 |
| 20260502220043 | 52 | 342 | 1.7 | 8.7 | 0.00 | 0.00 | 0.00 | 47 | 1017.3 |
| 20260502214534 | 52 | 340 | 3.5 | 10.4 | 0.00 | 0.00 | 0.00 | 45 | 1017.1 |
| 20260502213036 | 53 | 294 | 1.7 | 13.0 | 0.00 | 0.00 | 0.00 | 45 | 1017.1 |
| 20260502211553 | 54 | 326 | 1.7 | 7.0 | 0.00 | 0.00 | 0.00 | 44 | 1017.1 |
| 20260502210042 | 52 | 42 | 4.3 | 10.4 | 0.00 | 0.00 | 0.00 | 43 | 1017.0 |
| 20260502204541 | 55 | 38 | 3.5 | 9.6 | 0.00 | 0.00 | 0.00 | 43 | 1017.0 |
| 20260502203041 | 54 | 0 | 0.9 | 7.8 | 0.00 | 0.00 | 0.00 | 45 | 1017.0 |
| 20260502201540 | 56 | 308 | 2.6 | 7.8 | 0.00 | 0.00 | 0.00 | 43 | 1017.1 |